M0ADS Weather Reports


time (UTC)temp
C
wind
direction
speed
KPH
gust
KPH
rain 1hr
cm
rain 24hr
cm
rain mn
cm
humidity
%
barometer
mb
20260508065518 9 305 0.0 0.0 0.00 0.00 0.00 87 1015.9
20260508064016 9 305 0.0 0.0 0.00 0.00 0.00 87 1015.9
20260508062516 8 305 0.0 0.0 0.00 0.00 0.00 88 1015.8
20260508061016 8 305 0.0 0.0 0.00 0.00 0.00 88 1015.6
20260508055516 8 305 0.0 0.0 0.00 0.00 0.00 88 1015.5
20260508054016 8 305 0.0 0.0 0.00 0.00 0.00 88 1015.4
20260508052516 8 305 0.0 0.0 0.00 0.00 0.00 88 1015.3
20260508051016 8 305 0.0 0.0 0.00 0.00 0.00 88 1015.2
20260508045516 8 305 0.0 0.0 0.00 0.00 0.00 87 1015.2
20260508044015 8 305 0.0 0.0 0.00 0.00 0.00 87 1015.2
20260508042515 8 305 0.0 0.0 0.00 0.00 0.00 87 1015.0
20260508041016 8 305 0.0 0.0 0.00 0.00 0.00 86 1015.0
20260508035515 8 305 0.0 0.0 0.00 0.00 0.00 86 1014.9
20260508034016 8 305 0.0 0.0 0.00 0.00 0.00 85 1014.9
20260508032513 8 305 0.0 0.0 0.00 0.00 0.00 85 1015.0
20260508031013 8 305 0.0 0.0 0.00 0.00 0.00 85 1014.9
20260508025513 8 305 0.0 0.0 0.00 0.00 0.00 84 1014.8
20260508024011 9 305 0.0 0.0 0.00 0.00 0.00 84 1014.9
20260508022511 9 305 0.0 0.0 0.00 0.00 0.00 83 1014.9
20260508021011 9 305 0.0 0.0 0.00 0.00 0.00 83 1014.7
20260508015512 9 305 0.0 0.0 0.00 0.00 0.00 83 1014.7
20260508012509 9 305 0.0 0.0 0.00 0.00 0.00 82 1014.7
20260508011009 9 305 0.0 0.0 0.00 0.00 0.00 81 1014.7
20260508005507 10 305 0.0 0.0 0.00 0.00 0.00 81 1014.7
20260508004007 10 305 0.0 0.0 0.00 0.00 0.00 80 1014.8
20260508002507 10 305 0.0 0.0 0.00 0.00 0.00 79 1014.8
20260508001007 10 305 0.0 3.2 0.00 0.00 0.00 79 1014.8
20260507235507 10 305 0.0 1.6 0.00 0.00 0.00 78 1014.9
20260507234005 10 305 0.0 3.2 0.00 0.00 0.00 77 1014.9
20260507232505 10 351 0.0 1.6 0.00 0.00 0.00 77 1014.9
20260507231004 10 351 0.0 3.2 0.00 0.00 0.00 76 1014.9
20260507225502 10 286 0.0 1.6 0.00 0.00 0.00 75 1014.9
20260507224001 10 286 0.0 3.2 0.00 0.00 0.00 74 1014.8
20260507222501 10 271 0.0 3.2 0.00 0.00 0.00 73 1014.8
20260507221004 10 171 0.0 0.0 0.00 0.00 0.00 72 1014.9
20260507215501 11 171 0.0 0.0 0.00 0.00 0.00 72 1014.9
20260507214006 11 171 0.0 1.6 0.00 0.00 0.00 71 1015.0
20260507212511 11 171 0.0 1.6 0.00 0.00 0.00 69 1014.9
20260507211010 11 171 0.0 1.6 0.00 0.00 0.00 68 1014.8
20260507205510 11 178 0.0 8.0 0.00 0.00 0.00 67 1014.8
20260507204003 11 294 0.0 8.0 0.00 0.00 0.00 66 1014.7
20260507202510 11 109 0.0 3.2 0.00 0.00 0.00 65 1014.5
20260507201007 11 199 0.0 3.2 0.00 0.00 0.00 63 1014.5
20260507195452 12 201 1.6 11.3 0.00 0.00 0.00 63 1014.2
20260507194000 12 198 0.0 4.8 0.00 0.00 0.00 63 1014.2
20260507192505 12 144 0.0 6.4 0.00 0.00 0.00 60 1014.0
20260507191005 12 130 0.0 4.8 0.00 0.00 0.00 60 1013.9
20260507185452 12 75 0.0 6.4 0.00 0.00 0.00 60 1013.9
20260507183952 12 182 0.0 4.8 0.00 0.00 0.00 60 1013.9
20260507182452 12 153 0.0 4.8 0.00 0.00 0.00 59 1013.9
20260507180952 13 169 0.0 9.7 0.00 0.00 0.00 59 1013.7
20260507175452 13 153 0.0 11.3 0.00 0.00 0.00 58 1013.6
20260507173953 13 195 1.6 9.7 0.00 0.00 0.00 58 1013.6
20260507172453 13 138 1.6 11.3 0.00 0.00 0.00 58 1013.7
20260507170950 13 84 0.0 8.0 0.00 0.00 0.00 57 1013.7
20260507165450 13 143 0.0 6.4 0.00 0.00 0.00 57 1013.7
20260507163950 13 133 1.6 12.9 0.00 0.00 0.00 57 1013.7
20260507162450 14 184 0.0 4.8 0.00 0.00 0.00 57 1013.7
20260507160950 14 62 0.0 6.4 0.00 0.00 0.00 55 1013.7
20260507155445 14 140 0.0 6.4 0.00 0.00 0.00 56 1013.8
20260507153945 15 10 0.0 9.7 0.00 0.00 0.00 56 1013.8
20260507152448 13 260 0.0 6.4 0.00 0.00 0.00 58 1014.0
20260507150948 13 79 0.0 8.0 0.00 0.00 0.00 58 1014.2
20260507145448 13 90 0.0 4.8 0.00 0.00 0.00 58 1014.2
20260507143945 13 206 0.0 4.8 0.00 0.00 0.00 60 1014.3
20260507142446 12 78 0.0 6.4 0.00 0.00 0.00 61 1014.5
20260507140946 12 9 0.0 4.8 0.00 0.00 0.00 61 1014.6
20260507135444 12 156 0.0 8.0 0.00 0.00 0.00 61 1014.7
20260507133944 12 123 0.0 3.2 0.00 0.00 0.00 62 1014.6
20260507132444 12 134 0.0 4.8 0.00 0.00 0.00 62 1014.7
20260507130944 13 98 0.0 4.8 0.00 0.00 0.00 64 1014.6
20260507125444 13 119 1.6 8.0 0.00 0.00 0.00 63 1014.6
20260507123943 14 141 1.6 9.7 0.00 0.00 0.00 62 1014.7
20260507122443 14 143 0.0 9.7 0.00 0.00 0.00 62 1014.7
20260507120943 14 149 0.0 6.4 0.00 0.00 0.00 63 1014.9
20260507115441 13 238 0.0 4.8 0.00 0.00 0.00 65 1015.2
20260507113941 13 107 1.6 6.4 0.00 0.00 0.00 66 1015.0
20260507112441 12 121 1.6 6.4 0.00 0.00 0.00 69 1015.0
20260507110941 12 126 0.0 6.4 0.00 0.00 0.00 72 1015.3
20260507103937 11 342 0.0 11.3 0.00 0.00 0.00 75 1015.5
20260507102437 10 343 0.0 4.8 0.00 0.00 0.00 79 1015.6
20260507100935 10 288 0.0 8.0 0.00 0.00 0.00 79 1015.6
20260507095435 10 69 0.0 6.4 0.00 0.00 0.00 79 1015.6
20260507093934 10 319 0.0 4.8 0.00 0.00 0.00 80 1015.6
20260507092434 9 81 0.0 6.4 0.00 0.00 0.00 81 1015.5
20260507090934 8 85 0.0 6.4 0.00 0.00 0.00 81 1015.5
20260507085432 8 266 0.0 3.2 0.00 0.00 0.00 82 1015.6
20260507083931 8 180 0.0 6.4 0.00 0.00 0.00 81 1015.5
20260507082431 9 49 0.0 3.2 0.00 0.00 0.00 82 1015.6
20260507080930 8 63 0.0 4.8 0.00 0.00 0.00 82 1015.6
20260507075430 8 124 0.0 4.8 0.00 0.00 0.00 82 1015.5
20260507073928 8 113 0.0 4.8 0.00 0.00 0.00 84 1015.5
20260507072427 8 113 0.0 4.8 0.00 0.00 0.00 85 1015.4
20260507070926 8 342 0.0 3.2 0.00 0.00 0.00 87 1015.3